Погода в Тихвине

Погода в Тихвине : погода сейчас, прогноз погоды и архив. Всё, что Вы хотите узнать о погоде в Тихвине!

Хотите узнать прогноз погоды в Тихвине? Тогда Вам сюда: Погода в Тихвине

Поиск расширенной информации на нашем сайте:

Другие новости

Новости СМИ2

Главная страница сайта

Новости сайта

03.07.2017

Напоминаем, что на нашем специализированном сайте Метеоцентр.Азия вы можете получить высокодетализированные автоматические прогнозы погоды по пунктам России, СНГ и мира в авиационном формате (включающие направление и скорость ветра, видимость, явления погоды, количество и форму облачности, нижнюю и верхнюю границу облачности).


Погода в Тихвине - сегодня

Время (UTC), дата Ветер
(°,м/с) 
Видим.   Явления Облачность Т
(°С)
Тd
(°С)
f(%) Тe
(°С)
Pmin
(гПа)
dP
(гПа)
Po
(мм)
O2
(г/м3)
Тmin Tmax R s Состояние
почвы
21 15.08.18 тихо ()   4000 м  дымка  4/0 средняя 
[Ac trans]
+10.9 +10.4 97 +12  1012.5  1.3  754  290           
03 16.08.18 тихо ()   6000 м  дымка  5/0 средняя 
[Ac trans]
+8.5 +8.2 98 +9  1016.1  1.7  756  294  +7.8         
09 16.08.18 080 (В) 40000 м    1/1 1000 м 
[Cu hum]
+21.1 +9.2 46 +21  1018.6  1.4  758  282           
12 16.08.18 360 (С) 40000 м    5/5 1000 м 
[Cu med, cong]
+22.5 +9.1 42 +23  1019.5  0.9  759  281           
15 16.08.18 030 (СВ) 40000 м    4/4 1000 м 
[Cu hum]
+22.1 +8.9 43 +22  1020.1  0.6  760  282           
21 16.08.18 тихо ()   10 км    ясно 
+10.2 +9.6 96 +11  1022.6  1.1  761  294           
00 17.08.18 тихо ()   10 км    ясно 
+8.4 +7.9 97 +8  1023.6  762  297           
09 17.08.18 190 (Ю) 40000 м    4/3 1000 м верхняя 
[Cu hum|Ci fib]
+22.2 +11.1 49 +24  1024.1  -0.3  763  282           
12 17.08.18 210 (ЮЗ) 50000 м    4/4 1000 м 
[Sc diur, vesp]
+24.5 +10.7 42 +26  1023.4  -0.7  762  280           
15 17.08.18 200 (Ю) 50000 м    3/3 1000 м 
[Sc diur, vesp]
+24.1 +10.5 42 +26  1022.3  -1.1  761  280           
21 17.08.18 160 (Ю) 20000 м    ясно 
+13.1 +12 93 +18  1022.2  0.2  761  290           
00 18.08.18 тихо ()   20000 м    ясно 
+10.7 +10.2 97 +12  1022.8  0.6  761  293           
09 18.08.18 180 (Ю) 50000 м    3/1 600 м средняя 
[Cu hum|Ac trans]
+23.5 +12.4 50 +28  1021.3  -0.5  761  280           
12 18.08.18 180 (Ю) 50000 м    5/5 1000 м 
[Cu hum]
+23.9 +9.8 41 +25  1020.4  -0.8  760  280           
15 18.08.18 210 (ЮЗ) 50000 м    3/3 1000 м средняя 
[Cu hum|Ac trans]
+23.9 +11 44 +26  1018.9  -1.5  759  279           
21 18.08.18 160 (Ю) 20000 м    5/0 средняя 
[Ac trans]
+16.4 +12.1 76 +22  1018.1  -0.5  758  286           
00 19.08.18 170 (Ю) 20000 м    6/0 средняя 
[Ac trans]
+16.1 +12.2 78 +21  1016.8  -1.3  757  286           
03 19.08.18 170 (Ю) 30000 м    4/0 средняя 
[Ac trans]
+15.8 +12.9 83 +22  1015.7  -1.1  756  286  +15.8         
09 19.08.18 200 (Ю) 40000 м    6/0 средняя 
[Ac trans]
+22 +15.7 67 +32  1013.3  -1.6  755  278           
15 19.08.18 250 (З) 20000 м  {гроза, ливн. осадки}  10/4 600 м кучево-дожд., верхняя 
[Cb cap|Cs]
+19.2 +17.1 88 +32  1011.1  753  280      15     
21 19.08.18 220 (ЮЗ) 10 км  {дождь}  3/0 средняя 
[Ac trans]
+15.2 +14.5 96 +24  1011.3  -0.5  753  284           
00 20.08.18 200 (Ю) 10 км  {дождь}  ясно 
+13.3 +12.5 95 +20  1011.4  0.1  753  287           
09 20.08.18 240 (ЮЗ) 25000 м    10/10 540 м 
[Sc]
+16.6 +14.4 87 +26  1011.6  0.1  753  283           
12 20.08.18 210 (ЮЗ) 40000 м    8/5 600 м кучево-дожд., средняя, верхняя 
[Cb calv|Ac trans|Ci fib]
+19.7 +13.2 66 +27  1010.3  -1.2  752  280           
15 20.08.18 190 (Ю) 40000 м    9/3 600 м средняя 
[Sc diur, vesp|Ac As]
+18.7 +12.3 66 +24  1008.7  751  281           
Время (UTC), дата Ветер
(°,м/с) 
Видим.   Явления Облачность Т
(°С)
Тd
(°С)
f(%) Тe
(°С)
Pmin
(гПа)
dP
(гПа)
Po
(мм)
O2
(г/м3)
Тmin Tmax R s Состояние
почвы

Для получения пояснительной информации подведите курсор к названию столбца.

ПОГОДА в Тихвине - архив

Всё, что Вы хотите узнать о погоде в Тихвине - удобно и подробно!

Выберите нужную дату (начиная с 1 января 2015* года) и нажмите кнопку "Найти".
Будут отображены архивные сводки погоды по пункту Тихвин, начиная с указанной даты.


Отображать данные в формате CSV (для использования в таблицах Excel)


Внимание! Наш архив погоды предназначен исключительно для личного некоммерческого использования в познавательных целях. Если Вам необходимы официальные справки о состоянии погоды (для производственных, юридических, коммерческих и т.п. целей), обращайтесь в органы Росгидромета.

*Примечание: данная дата относится к архиву по метеостанциям СССР (Россия, СНГ, Балтия).
Архив по метеостанциям Зарубежной Европы и Азии (кроме Китая) хранится 10 дней, по другим регионам земного шара (Китай, Африка, Америка, Австралия, Океания) - 1 день.

Тихвин - район местоположения метеостанции


Название, широта, долгота, высота метеостанции:
Тихвин 59.6°ш. 33.6°д. 61 м над ур. моря [Российская Федерация]

Дополнительная информация

В oтличие oт бoльшинства пoгoдных сайтoв мы публикуем пoдрoбную метеoинфoрмацию в детальнoм прoфессиoнальнoм фoрмате.

Характеристики температуры и влажнoсти вoздуха измеряются на высoте 2 м в тени вдали oт зданий и деревьев.
Скoрoсть ветра измеряется на высoте 10 м (на урoвне рoста челoвека скoрoсть ветра ниже в 1.5-2 раза). Если метеoстанция нахoдится в гoрoде или в лесу, тo скoрoсть ветра занижена на 2-4 м/с пo сравнению с oткрытым местoм. Скoрoсть ветра над акватoриями крупных рек и oзёр, а также на вершинах хoлмoв на 2-5 м/с выше, чем в oбычных услoвиях.
Атмoсфернoе давление в разных тoчках местнoсти мoжет значительнo oтличаться oт давления на метеoстанции, в зависимoсти oт услoвий рельефа (при пoдъёме на 10 м давление пoнижается примернo на 1 мм рт.ст.).